AD7CQ Weather Reports


time (UTC)temp
C
wind
direction
speed
KPH
gust
KPH
rain 1hr
cm
rain 24hr
cm
rain mn
cm
humidity
%
barometer
mb
20260506180026 25 221 3.2 12.9 0.00 0.00 0.00 41 1009.9
20260506174522 23 224 1.6 12.9 0.00 0.00 0.00 43 1009.9
20260506173022 23 191 3.2 14.5 0.00 0.00 0.00 45 1010.1
20260506171520 23 197 1.6 14.5 0.00 0.00 0.00 46 1010.2
20260506170011 22 206 1.6 16.1 0.00 0.00 0.00 47 1010.5
20260506164512 22 147 1.6 6.4 0.00 0.00 0.00 48 1010.5
20260506163003 22 208 0.0 6.4 0.00 0.00 0.00 50 1010.6
20260506161600 22 187 1.6 8.0 0.00 0.00 0.00 50 1010.6
20260506160108 21 143 0.0 6.4 0.00 0.00 0.00 53 1010.5
20260506154550 21 115 3.2 12.9 0.00 0.00 0.00 55 1010.5
20260506153045 20 137 1.6 8.0 0.00 0.00 0.00 57 1010.3
20260506151544 20 129 1.6 11.3 0.00 0.00 0.00 58 1010.4
20260506150037 19 100 1.6 6.4 0.00 0.00 0.00 59 1010.4
20260506144532 18 80 0.0 0.0 0.00 0.00 0.00 60 1010.3
20260506143033 18 81 0.0 0.0 0.00 0.00 0.00 62 1010.3
20260506141523 17 80 0.0 0.0 0.00 0.00 0.00 64 1010.2
20260506140019 17 81 0.0 4.8 0.00 0.00 0.00 67 1010.1
20260506134520 16 80 0.0 0.0 0.00 0.00 0.00 73 1010.0
20260506133011 14 81 0.0 0.0 0.00 0.00 0.00 79 1009.8
20260506131513 13 81 0.0 0.0 0.00 0.00 0.00 80 1009.6
20260506130004 13 81 0.0 0.0 0.00 0.00 0.00 80 1009.4
20260506124500 13 81 0.0 0.0 0.00 0.00 0.00 79 1009.3
20260506123058 13 81 0.0 0.0 0.00 0.00 0.00 77 1009.3
20260506121556 14 80 0.0 0.0 0.00 0.00 0.00 75 1009.0
20260506120054 15 80 0.0 0.0 0.00 0.00 0.00 74 1008.9
20260506114550 15 80 0.0 0.0 0.00 0.00 0.00 73 1008.7
20260506113048 15 80 0.0 1.6 0.00 0.00 0.00 74 1008.6
20260506111546 14 81 1.6 4.8 0.00 0.00 0.00 77 1008.5
20260506110044 13 81 0.0 0.0 0.00 0.00 0.00 76 1008.5
20260506104548 14 81 0.0 0.0 0.00 0.00 0.00 74 1008.3
20260506103040 14 81 0.0 0.0 0.00 0.00 0.00 73 1008.2
20260506101537 15 80 0.0 0.0 0.00 0.00 0.00 72 1008.3
20260506100037 15 80 0.0 1.6 0.00 0.00 0.00 71 1008.1
20260506094545 15 80 0.0 0.0 0.00 0.00 0.00 70 1008.1
20260506093035 15 80 0.0 0.0 0.00 0.00 0.00 69 1008.1
20260506091531 16 80 0.0 0.0 0.00 0.00 0.00 67 1008.0
20260506090025 16 81 0.0 0.0 0.00 0.00 0.00 66 1008.0
20260506084523 17 80 0.0 0.0 0.00 0.00 0.00 64 1007.9
20260506083020 17 80 0.0 3.2 0.00 0.00 0.00 63 1007.7
20260506081518 17 80 0.0 3.2 0.00 0.00 0.00 64 1007.6
20260506073012 18 81 0.0 0.0 0.00 0.00 0.00 64 1007.6
20260506071513 18 80 0.0 0.0 0.00 0.00 0.00 65 1007.6
20260506061509 20 80 0.0 0.0 0.00 0.00 0.00 54 1007.2
20260506044501 22 80 0.0 0.0 0.00 0.00 0.00 44 1006.8
20260506043058 23 80 0.0 0.0 0.00 0.00 0.00 44 1006.8
20260506041556 23 80 0.0 0.0 0.00 0.00 0.00 42 1006.7
20260506040054 24 80 1.6 6.4 0.00 0.00 0.00 41 1006.5
20260506034556 25 79 0.0 4.8 0.00 0.00 0.00 40 1006.4
20260506033055 25 79 0.0 0.0 0.00 0.00 0.00 40 1006.2
20260506031558 26 80 0.0 0.0 0.00 0.00 0.00 37 1006.1
20260506030052 27 79 0.0 0.0 0.00 0.00 0.00 36 1006.0
20260506024559 27 80 0.0 6.4 0.00 0.00 0.00 35 1006.0
20260506023058 28 52 0.0 4.8 0.00 0.00 0.00 33 1006.0
20260506021551 28 42 0.0 0.0 0.00 0.00 0.00 31 1006.0
20260506020051 30 227 0.0 0.0 0.00 0.00 0.00 25 1005.9
20260506014551 29 227 0.0 0.0 0.00 0.00 0.00 25 1005.9
20260506013051 29 226 0.0 3.2 0.00 0.00 0.00 25 1005.9
20260506011549 30 359 1.6 8.0 0.00 0.00 0.00 25 1005.9
20260506010049 30 21 1.6 6.4 0.00 0.00 0.00 25 1006.0
20260506004549 30 11 1.6 6.4 0.00 0.00 0.00 25 1006.0
20260506003049 30 42 0.0 8.0 0.00 0.00 0.00 26 1005.9
20260506001550 30 4 0.0 8.0 0.00 0.00 0.00 26 1006.0
20260506000047 30 8 0.0 4.8 0.00 0.00 0.00 26 1006.1
20260505234550 30 359 0.0 4.8 0.00 0.00 0.00 27 1006.3
20260505233043 30 289 0.0 3.2 0.00 0.00 0.00 29 1006.4
20260505231552 29 56 0.0 8.0 0.00 0.00 0.00 27 1006.6
20260505230052 30 359 0.0 0.0 0.00 0.00 0.00 30 1006.7
20260505224539 29 20 0.0 0.0 0.00 0.00 0.00 30 1006.8
20260505223038 29 359 0.0 8.0 0.00 0.00 0.00 29 1007.0
20260505221536 29 15 3.2 12.9 0.00 0.00 0.00 31 1007.1
20260505220036 28 354 1.6 4.8 0.00 0.00 0.00 32 1007.2
20260505214533 28 262 1.6 11.3 0.00 0.00 0.00 32 1007.5
20260505213029 28 8 0.0 0.0 0.00 0.00 0.00 33 1007.5
20260505211527 28 12 0.0 8.0 0.00 0.00 0.00 35 1007.6
20260505210025 27 12 3.2 8.0 0.00 0.00 0.00 36 1007.7
20260505204524 27 258 1.6 12.9 0.00 0.00 0.00 35 1007.9
20260505203023 27 354 3.2 14.5 0.00 0.00 0.00 36 1008.0
20260505201519 27 359 1.6 12.9 0.00 0.00 0.00 37 1008.1
20260505200018 26 359 1.6 9.7 0.00 0.00 0.00 39 1008.1
20260505194514 26 308 1.6 8.0 0.00 0.00 0.00 40 1008.1
20260505193012 26 291 1.6 9.7 0.00 0.00 0.00 41 1008.2
20260505191509 25 313 1.6 8.0 0.00 0.00 0.00 42 1008.3
20260505190009 25 324 1.6 8.0 0.00 0.00 0.00 43 1008.4
20260505184502 24 4 0.0 8.0 0.00 0.00 0.00 43 1008.4
20260505183059 23 262 1.6 8.0 0.00 0.00 0.00 45 1008.5
20260505181555 23 278 1.6 8.0 0.00 0.00 0.00 46 1008.5